Home   Weather   Albury   Past weeks
Flag for Australia

Past Weather in Albury, New South Wales, Australia — Yesterday and Last 2 Weeks

Now
46 °F

Passing clouds.


Feels Like: 46 °F
Forecast: 57 / 39 °F
Wind: No wind

Location: Albury Airport

Current Time: Jul 21, 2019 at 11:57:55 pm

Latest Report: Jul 21, 2019 at 11:00 pm


Visibility: N/A

Pressure: 30.01 "Hg

Humidity: 87%

Dew Point: 43 °F

Location of AlburyLocation

Past Weather in Albury — Graph

°F

Albury Temperature Yesterday

Maximum temperature yesterday: 59 °F (at 1:00 pm)
Minimum temperature yesterday: 39 °F (at 1:32 am)
Average temperature yesterday: 46 °F

High & Low Weather Summary for the Past Weeks

 TemperatureHumidityPressure
High59 °F (Jul 8, 2:00 pm)100% (Jul 6, 10:00 pm)30.48 "Hg (Jul 6, 10:00 pm)
Low34 °F (Jul 14, 1:00 am)55% (Jul 15, 1:00 pm)29.71 "Hg (Jul 11, 12:00 am)
Average48 °F86%30.09 "Hg
* Reported Jul 6 10:00 pm — Jul 21 10:00 pm, Albury. Weather by CustomWeather, © 2019

Note: Actual official high and low records may vary slightly from our data, if they occured in-between our weather recording intervals... More about our weather records

Advertising

Albury Weather History for the Previous 24 Hours

Scroll right to see more
 ConditionsComfort  
Time TempWeatherWind HumidityBarometerVisibility
10:00 pm
Sun, Jul 21
48 °FPartly cloudy.3 mph87%29.98 "HgN/A
9:00 pm48 °FMostly cloudy.No wind87%29.98 "HgN/A
8:00 pm50 °FPartly cloudy.No wind88%29.98 "HgN/A
7:00 pm50 °FMostly cloudy.No wind88%29.98 "HgN/A
6:00 pm52 °FOvercast.No wind82%29.95 "HgN/A
5:00 pm54 °FMostly cloudy.6 mph72%29.92 "HgN/A
4:00 pm55 °FCloudy.2 mph63%29.92 "HgN/A
3:00 pm57 °FPartly sunny.7 mph59%29.92 "HgN/A
2:00 pm57 °FScattered clouds.10 mph55%29.92 "HgN/A
1:00 pm59 °FSunny.9 mph55%29.95 "HgN/A
12:00 pm55 °FSunny.3 mph72%29.95 "HgN/A
11:00 am50 °FSunny.2 mph88%29.98 "HgN/A
10:00 am46 °FSunny.2 mph93%29.98 "HgN/A
9:00 am43 °FSunny.No wind93%29.98 "HgN/A
8:00 am39 °FSunny.No wind93%29.98 "HgN/A
7:00 am36 °FClear.No wind100%30.01 "HgN/A
6:00 am36 °FClear.No wind93%30.01 "HgN/A
5:00 am34 °FClear.3 mph100%30.01 "Hg6 mi
4:17 am36 °FClear.No wind100%30.01 "HgN/A
4:00 am36 °FClear.No wind93%29.98 "Hg4 mi
3:00 am36 °FClear.No wind93%30.01 "HgN/A
2:00 am37 °FClear.3 mph93%30.01 "HgN/A
1:30 am37 °FClear.2 mph93%30.04 "Hg2 mi
1:07 am37 °FClear.No wind100%30.04 "Hg4 mi
1:00 am39 °FClear.No wind93%30.01 "HgN/A
12:00 am39 °FClear.2 mph100%30.04 "HgN/A
11:30 pm
Sat, Jul 20
39 °FClear.No wind100%30.04 "Hg6 mi
11:12 pm39 °FClear.1 mph93%30.07 "Hg4 mi
11:00 pm41 °FClear.3 mph93%30.07 "HgN/A
Weather by CustomWeather, © 2019

See weather overview